| time (UTC) | temp F | wind direction | speed MPH | gust MPH | rain 1hr in | rain 24hr in | rain mn in | humidity % | barometer mb |
| 20260831051003 | 60 | 0 | 0.0 | 0.0 | 0.00 | 0.05 | 0.00 | 94 | 1020.2 |
| 20260831050003 | 61 | 0 | 0.0 | 0.0 | 0.00 | 0.05 | 0.00 | 94 | 1020.1 |
| 20260831045003 | 61 | 0 | 0.0 | 0.0 | 0.00 | 0.05 | 0.00 | 94 | 1020.1 |
| 20260831044003 | 61 | 0 | 0.0 | 0.0 | 0.00 | 0.05 | 0.00 | 94 | 1020.0 |
| 20260831043003 | 62 | 0 | 0.0 | 0.0 | 0.00 | 0.05 | 0.00 | 94 | 1020.1 |
| 20260831042003 | 62 | 0 | 0.0 | 0.0 | 0.00 | 0.05 | 0.00 | 94 | 1020.0 |
| 20260831041003 | 62 | 0 | 0.0 | 0.0 | 0.00 | 0.05 | 0.00 | 94 | 1019.9 |
| 20260831040003 | 62 | 0 | 0.0 | 0.0 | 0.00 | 0.05 | 0.00 | 94 | 1019.9 |
| 20260831035003 | 62 | 0 | 0.0 | 0.0 | 0.00 | 0.05 | 0.05 | 94 | 1019.8 |
| 20260831034003 | 62 | 0 | 0.0 | 0.0 | 0.00 | 0.05 | 0.05 | 94 | 1019.8 |
| 20260831033003 | 62 | 0 | 0.0 | 0.0 | 0.00 | 0.05 | 0.05 | 94 | 1019.7 |
| 20260831032003 | 62 | 0 | 0.0 | 0.0 | 0.00 | 0.05 | 0.05 | 94 | 1019.6 |
| 20260831031024 | 62 | 159 | 1.0 | 2.0 | 0.00 | 0.05 | 0.05 | 93 | 1019.7 |
| 20260831030003 | 62 | 0 | 0.0 | 0.0 | 0.00 | 0.05 | 0.05 | 94 | 1019.6 |
| 20260831025003 | 62 | 0 | 0.0 | 0.0 | 0.00 | 0.05 | 0.05 | 94 | 1019.5 |
| 20260831024003 | 62 | 0 | 0.0 | 0.0 | 0.00 | 0.05 | 0.05 | 94 | 1019.5 |
| 20260831023003 | 62 | 0 | 0.0 | 0.0 | 0.00 | 0.05 | 0.05 | 93 | 1019.5 |
| 20260831022003 | 62 | 240 | 1.0 | 3.0 | 0.00 | 0.05 | 0.05 | 93 | 1019.3 |
| 20260831021003 | 62 | 0 | 0.0 | 0.0 | 0.00 | 0.05 | 0.05 | 93 | 1019.3 |
| 20260831020003 | 62 | 0 | 0.0 | 0.0 | 0.00 | 0.05 | 0.05 | 93 | 1019.3 |
| 20260831015003 | 62 | 0 | 0.0 | 0.0 | 0.00 | 0.05 | 0.05 | 93 | 1019.2 |
| 20260831014003 | 62 | 0 | 0.0 | 0.0 | 0.00 | 0.05 | 0.05 | 93 | 1019.1 |
| 20260831013003 | 62 | 0 | 0.0 | 0.0 | 0.00 | 0.05 | 0.05 | 93 | 1019.1 |
| 20260831012003 | 62 | 240 | 0.0 | 1.0 | 0.00 | 0.05 | 0.05 | 93 | 1019.0 |
| 20260831011003 | 62 | 240 | 0.0 | 2.0 | 0.00 | 0.05 | 0.05 | 93 | 1019.0 |
| 20260831010003 | 62 | 238 | 0.0 | 1.0 | 0.00 | 0.05 | 0.05 | 93 | 1018.9 |
| 20260831005024 | 62 | 239 | 0.0 | 3.0 | 0.00 | 0.05 | 0.05 | 93 | 1018.9 |
| 20260831004003 | 62 | 231 | 0.0 | 1.0 | 0.00 | 0.05 | 0.05 | 93 | 1018.7 |
| 20260831003024 | 62 | 230 | 0.0 | 2.0 | 0.00 | 0.05 | 0.05 | 92 | 1018.6 |
| 20260831002024 | 62 | 231 | 0.0 | 4.0 | 0.00 | 0.05 | 0.05 | 93 | 1018.4 |
| 20260831001003 | 62 | 0 | 0.0 | 0.0 | 0.01 | 0.05 | 0.05 | 93 | 1018.4 |
| 20260831000003 | 62 | 0 | 0.0 | 0.0 | 0.01 | 0.05 | 0.05 | 92 | 1018.3 |
| 20260830235003 | 63 | 0 | 0.0 | 0.0 | 0.01 | 0.05 | 0.05 | 92 | 1018.2 |
| 20260830234003 | 63 | 0 | 0.0 | 0.0 | 0.01 | 0.05 | 0.05 | 92 | 1018.0 |
| 20260830233003 | 63 | 333 | 0.0 | 2.0 | 0.01 | 0.05 | 0.05 | 92 | 1017.9 |
| 20260830232003 | 63 | 56 | 0.0 | 2.0 | 0.01 | 0.05 | 0.05 | 91 | 1018.0 |
| 20260830231003 | 63 | 360 | 0.0 | 1.0 | 0.00 | 0.04 | 0.04 | 91 | 1018.0 |
| 20260830230003 | 63 | 0 | 0.0 | 0.0 | 0.00 | 0.04 | 0.04 | 91 | 1017.8 |
| 20260830225003 | 63 | 219 | 0.0 | 4.0 | 0.00 | 0.04 | 0.04 | 91 | 1017.9 |
| 20260830224003 | 64 | 221 | 3.0 | 7.0 | 0.00 | 0.04 | 0.04 | 90 | 1017.9 |
| 20260830223003 | 64 | 221 | 2.0 | 6.0 | 0.00 | 0.04 | 0.04 | 90 | 1017.6 |
| 20260830222003 | 64 | 221 | 3.0 | 7.0 | 0.00 | 0.04 | 0.04 | 90 | 1017.6 |
| 20260830221024 | 64 | 229 | 2.0 | 9.0 | 0.00 | 0.04 | 0.04 | 90 | 1017.7 |
| 20260830220003 | 64 | 226 | 3.0 | 8.0 | 0.00 | 0.04 | 0.04 | 89 | 1017.7 |
| 20260830215003 | 64 | 221 | 2.0 | 7.0 | 0.00 | 0.04 | 0.04 | 89 | 1017.7 |
| 20260830214003 | 64 | 0 | 0.0 | 0.0 | 0.00 | 0.04 | 0.04 | 91 | 1017.6 |
| 20260830213003 | 64 | 0 | 0.0 | 0.0 | 0.00 | 0.04 | 0.04 | 91 | 1017.5 |
| 20260830212003 | 65 | 0 | 0.0 | 0.0 | 0.00 | 0.04 | 0.04 | 91 | 1017.5 |
| 20260830211003 | 65 | 0 | 0.0 | 0.0 | 0.00 | 0.04 | 0.04 | 92 | 1017.4 |
| 20260830210003 | 65 | 0 | 0.0 | 0.0 | 0.00 | 0.04 | 0.04 | 92 | 1017.4 |
| 20260830205003 | 65 | 0 | 0.0 | 0.0 | 0.01 | 0.04 | 0.04 | 91 | 1017.4 |
| 20260830204024 | 65 | 0 | 0.0 | 0.0 | 0.03 | 0.04 | 0.04 | 91 | 1017.3 |
| 20260830203003 | 65 | 0 | 0.0 | 0.0 | 0.03 | 0.04 | 0.04 | 91 | 1017.3 |
| 20260830202024 | 65 | 0 | 0.0 | 0.0 | 0.03 | 0.04 | 0.04 | 89 | 1017.3 |
| 20260830201003 | 65 | 251 | 0.0 | 2.0 | 0.03 | 0.04 | 0.04 | 88 | 1017.5 |
| 20260830200003 | 66 | 62 | 1.0 | 7.0 | 0.03 | 0.04 | 0.04 | 85 | 1017.6 |
| 20260830195003 | 68 | 76 | 2.0 | 8.0 | 0.00 | 0.01 | 0.01 | 81 | 1017.6 |
| 20260830194003 | 69 | 353 | 2.0 | 6.0 | 0.00 | 0.01 | 0.01 | 75 | 1017.5 |
| 20260830193003 | 70 | 253 | 1.0 | 3.0 | 0.00 | 0.01 | 0.01 | 73 | 1017.3 |
| 20260830192003 | 71 | 226 | 2.0 | 5.0 | 0.00 | 0.01 | 0.01 | 72 | 1017.2 |
| 20260830191003 | 71 | 239 | 0.0 | 3.0 | 0.00 | 0.01 | 0.01 | 70 | 1017.3 |
| 20260830190003 | 71 | 224 | 1.0 | 5.0 | 0.00 | 0.01 | 0.01 | 71 | 1017.6 |
| 20260830185004 | 72 | 225 | 2.0 | 5.0 | 0.00 | 0.01 | 0.01 | 71 | 1017.7 |
| 20260830184003 | 71 | 224 | 2.0 | 6.0 | 0.00 | 0.01 | 0.01 | 70 | 1017.6 |
| 20260830183003 | 71 | 228 | 2.0 | 4.0 | 0.00 | 0.01 | 0.01 | 70 | 1017.8 |
| 20260830182003 | 71 | 218 | 3.0 | 9.0 | 0.00 | 0.01 | 0.01 | 70 | 1017.9 |
| 20260830181003 | 71 | 229 | 2.0 | 4.0 | 0.00 | 0.01 | 0.01 | 74 | 1017.9 |
| 20260830180003 | 70 | 225 | 2.0 | 5.0 | 0.00 | 0.01 | 0.01 | 77 | 1017.9 |
| 20260830175003 | 69 | 224 | 2.0 | 6.0 | 0.00 | 0.01 | 0.01 | 79 | 1018.1 |
| 20260830174003 | 69 | 230 | 1.0 | 4.0 | 0.00 | 0.01 | 0.01 | 79 | 1018.3 |
| 20260830173024 | 69 | 230 | 1.0 | 3.0 | 0.00 | 0.01 | 0.01 | 77 | 1018.3 |
| 20260830172003 | 69 | 231 | 3.0 | 6.0 | 0.00 | 0.01 | 0.01 | 76 | 1018.4 |
| 20260830171003 | 69 | 223 | 2.0 | 6.0 | 0.00 | 0.01 | 0.01 | 76 | 1018.4 |
| 20260830170024 | 69 | 220 | 2.0 | 5.0 | 0.00 | 0.01 | 0.01 | 79 | 1018.6 |
| 20260830165024 | 68 | 224 | 1.0 | 4.0 | 0.00 | 0.01 | 0.01 | 80 | 1018.6 |
| 20260830164003 | 67 | 223 | 1.0 | 4.0 | 0.00 | 0.01 | 0.01 | 80 | 1018.7 |
| 20260830163003 | 67 | 214 | 2.0 | 5.0 | 0.00 | 0.01 | 0.01 | 81 | 1018.8 |
| 20260830162003 | 66 | 214 | 1.0 | 4.0 | 0.00 | 0.01 | 0.01 | 82 | 1018.8 |
| 20260830161004 | 66 | 0 | 0.0 | 0.0 | 0.00 | 0.01 | 0.01 | 84 | 1019.1 |
| 20260830160003 | 66 | 0 | 0.0 | 0.0 | 0.00 | 0.01 | 0.01 | 85 | 1019.2 |
| 20260830155003 | 65 | 0 | 0.0 | 0.0 | 0.00 | 0.01 | 0.01 | 86 | 1019.3 |
| 20260830154003 | 65 | 0 | 0.0 | 0.0 | 0.00 | 0.01 | 0.01 | 87 | 1019.3 |
| 20260830153003 | 64 | 224 | 0.0 | 3.0 | 0.00 | 0.01 | 0.01 | 88 | 1019.4 |
| 20260830152003 | 64 | 227 | 2.0 | 5.0 | 0.00 | 0.01 | 0.01 | 88 | 1019.6 |
| 20260830151003 | 63 | 237 | 1.0 | 2.0 | 0.00 | 0.01 | 0.01 | 89 | 1019.4 |
| 20260830150003 | 63 | 0 | 0.0 | 0.0 | 0.00 | 0.01 | 0.01 | 89 | 1019.4 |
| 20260830145003 | 63 | 237 | 0.0 | 1.0 | 0.01 | 0.01 | 0.01 | 90 | 1019.4 |
| 20260830144024 | 63 | 237 | 0.0 | 1.0 | 0.01 | 0.01 | 0.01 | 91 | 1019.4 |
| 20260830143003 | 62 | 237 | 0.0 | 2.0 | 0.01 | 0.01 | 0.01 | 89 | 1019.4 |
| 20260830142003 | 62 | 236 | 3.0 | 6.0 | 0.01 | 0.01 | 0.01 | 88 | 1019.6 |
| 20260830141003 | 63 | 229 | 1.0 | 4.0 | 0.01 | 0.01 | 0.01 | 89 | 1019.8 |
| 20260830140024 | 63 | 0 | 0.0 | 0.0 | 0.01 | 0.01 | 0.01 | 88 | 1019.3 |
| 20260830135024 | 63 | 0 | 0.0 | 0.0 | 0.00 | 0.00 | 0.00 | 86 | 1019.3 |
| 20260830134003 | 63 | 226 | 1.0 | 4.0 | 0.00 | 0.00 | 0.00 | 83 | 1019.5 |
| 20260830133003 | 64 | 227 | 1.0 | 3.0 | 0.00 | 0.00 | 0.00 | 82 | 1019.6 |
| 20260830132003 | 64 | 224 | 1.0 | 3.0 | 0.00 | 0.00 | 0.00 | 80 | 1019.7 |
| 20260830131003 | 64 | 220 | 2.0 | 4.0 | 0.00 | 0.00 | 0.00 | 80 | 1019.8 |
| 20260830130024 | 63 | 217 | 1.0 | 5.0 | 0.00 | 0.00 | 0.00 | 80 | 1019.7 |
| 20260830125024 | 63 | 206 | 2.0 | 6.0 | 0.00 | 0.00 | 0.00 | 81 | 1019.7 |
| 20260830124003 | 62 | 194 | 1.0 | 3.0 | 0.00 | 0.00 | 0.00 | 82 | 1019.8 |
| 20260830123003 | 61 | 190 | 0.0 | 3.0 | 0.00 | 0.00 | 0.00 | 84 | 1019.7 |
| 20260830122003 | 61 | 0 | 0.0 | 0.0 | 0.00 | 0.00 | 0.00 | 88 | 1019.8 |
| 20260830121003 | 61 | 0 | 0.0 | 0.0 | 0.00 | 0.00 | 0.00 | 88 | 1019.8 |
| 20260830120003 | 60 | 0 | 0.0 | 0.0 | 0.00 | 0.00 | 0.00 | 88 | 1019.8 |
| 20260830115003 | 60 | 0 | 0.0 | 0.0 | 0.00 | 0.00 | 0.00 | 88 | 1019.8 |
| 20260830114024 | 60 | 0 | 0.0 | 0.0 | 0.00 | 0.00 | 0.00 | 89 | 1019.8 |
| 20260830113003 | 59 | 0 | 0.0 | 0.0 | 0.00 | 0.00 | 0.00 | 89 | 1019.9 |
| 20260830112003 | 59 | 0 | 0.0 | 0.0 | 0.00 | 0.00 | 0.00 | 89 | 1019.8 |
| 20260830111003 | 58 | 0 | 0.0 | 0.0 | 0.00 | 0.00 | 0.00 | 90 | 1019.9 |
| 20260830110024 | 58 | 0 | 0.0 | 0.0 | 0.00 | 0.00 | 0.00 | 89 | 1019.9 |
| 20260830105003 | 58 | 0 | 0.0 | 0.0 | 0.00 | 0.00 | 0.00 | 89 | 1019.8 |
| 20260830104003 | 58 | 0 | 0.0 | 0.0 | 0.00 | 0.00 | 0.00 | 90 | 1019.8 |
| 20260830103003 | 58 | 0 | 0.0 | 0.0 | 0.00 | 0.00 | 0.00 | 90 | 1020.0 |
| 20260830102003 | 58 | 0 | 0.0 | 0.0 | 0.00 | 0.00 | 0.00 | 89 | 1019.9 |
| 20260830101024 | 57 | 0 | 0.0 | 0.0 | 0.00 | 0.00 | 0.00 | 89 | 1019.9 |
| 20260830100003 | 57 | 0 | 0.0 | 0.0 | 0.00 | 0.00 | 0.00 | 89 | 1019.8 |
| 20260830095003 | 57 | 0 | 0.0 | 0.0 | 0.00 | 0.00 | 0.00 | 89 | 1019.8 |
| 20260830094024 | 57 | 0 | 0.0 | 0.0 | 0.00 | 0.00 | 0.00 | 89 | 1019.8 |
| 20260830093003 | 57 | 0 | 0.0 | 0.0 | 0.00 | 0.00 | 0.00 | 89 | 1020.0 |
| 20260830092024 | 57 | 0 | 0.0 | 0.0 | 0.00 | 0.00 | 0.00 | 89 | 1019.9 |
| 20260830091003 | 57 | 0 | 0.0 | 0.0 | 0.00 | 0.00 | 0.00 | 89 | 1019.8 |
| 20260830090004 | 57 | 0 | 0.0 | 0.0 | 0.00 | 0.00 | 0.00 | 89 | 1019.9 |
| 20260830085003 | 57 | 0 | 0.0 | 0.0 | 0.00 | 0.00 | 0.00 | 90 | 1019.9 |
| 20260830084003 | 57 | 103 | 0.0 | 3.0 | 0.00 | 0.00 | 0.00 | 90 | 1019.9 |
| 20260830083003 | 57 | 103 | 0.0 | 3.0 | 0.00 | 0.00 | 0.00 | 90 | 1020.0 |
| 20260830082003 | 56 | 0 | 0.0 | 0.0 | 0.00 | 0.00 | 0.00 | 90 | 1020.0 |
| 20260830081003 | 56 | 0 | 0.0 | 0.0 | 0.00 | 0.00 | 0.00 | 90 | 1020.1 |
| 20260830080003 | 56 | 0 | 0.0 | 0.0 | 0.00 | 0.00 | 0.00 | 90 | 1020.0 |
| 20260830075003 | 56 | 0 | 0.0 | 0.0 | 0.00 | 0.00 | 0.00 | 90 | 1020.1 |
| 20260830074003 | 56 | 0 | 0.0 | 0.0 | 0.00 | 0.00 | 0.00 | 90 | 1020.1 |
| 20260830073003 | 56 | 0 | 0.0 | 0.0 | 0.00 | 0.00 | 0.00 | 89 | 1020.2 |
| 20260830072024 | 56 | 0 | 0.0 | 0.0 | 0.00 | 0.00 | 0.00 | 89 | 1020.2 |
| 20260830071024 | 56 | 0 | 0.0 | 0.0 | 0.00 | 0.00 | 0.00 | 89 | 1020.2 |
| 20260830070003 | 56 | 0 | 0.0 | 0.0 | 0.00 | 0.00 | 0.00 | 89 | 1020.2 |
| 20260830065024 | 56 | 0 | 0.0 | 0.0 | 0.00 | 0.00 | 0.00 | 89 | 1020.1 |
| 20260830064003 | 56 | 0 | 0.0 | 0.0 | 0.00 | 0.00 | 0.00 | 89 | 1020.2 |
| 20260830063003 | 56 | 0 | 0.0 | 0.0 | 0.00 | 0.00 | 0.00 | 88 | 1020.3 |
| 20260830062003 | 56 | 227 | 0.0 | 2.0 | 0.00 | 0.00 | 0.00 | 88 | 1020.4 |
| 20260830061024 | 57 | 0 | 0.0 | 0.0 | 0.00 | 0.00 | 0.00 | 86 | 1020.5 |
| 20260830060003 | 58 | 228 | 1.0 | 4.0 | 0.00 | 0.00 | 0.00 | 82 | 1020.5 |
| 20260830055003 | 59 | 219 | 3.0 | 6.0 | 0.00 | 0.00 | 0.00 | 82 | 1020.5 |
| 20260830054003 | 57 | 216 | 2.0 | 6.0 | 0.00 | 0.00 | 0.00 | 86 | 1020.6 |
| 20260830053003 | 55 | 206 | 0.0 | 4.0 | 0.00 | 0.00 | 0.00 | 90 | 1020.6 |
| 20260830052003 | 55 | 0 | 0.0 | 0.0 | 0.00 | 0.00 | 0.00 | 90 | 1020.5 |